Terminal Aerodrome Forecast
Issued by NWS Sioux Falls, SD

Home | Current Version | Previous Version | Graphics & Text | Print | Product List | Glossary On
Versions: 1 2 3 4 5 6 7 8 9 10 11 12 13 14 15 16 17 18 19 20 21 22 23 24
000
FTUS43 KFSD 230529
TAFFSD
TAF
KFSD 230529Z 2306/2406 05009KT 4SM -RASN OVC005
      TEMPO 2306/2308 1SM -SN
     FM230800 03010KT 3SM -SN OVC006
      TEMPO 2308/2311 1SM -SN OVC004
     FM231400 36014G20KT 5SM -SN OVC006
     FM231800 35018G25KT 6SM -SN OVC010
     FM232100 34018G25KT P6SM OVC012
     FM240200 33014KT P6SM OVC020=

USA.gov is the U.S. government's official web portal to all federal, state and local government web resources and services.